EDT,Max TemperatureF,Mean TemperatureF,Min TemperatureF,Max Dew PointF,MeanDew PointF,Min DewpointF,Max Humidity, Mean Humidity, Min Humidity, Max Sea Level PressureIn, Mean Sea Level PressureIn, Min Sea Level PressureIn, Max VisibilityMiles, Mean VisibilityMiles, Min VisibilityMiles, Max Wind SpeedMPH, Mean Wind SpeedMPH, Max Gust SpeedMPH,PrecipitationIn, CloudCover, Events, WindDirDegrees
2013-7-1,77,75,72,73,71,70,94,91,87,30.06,29.98,29.92,10,6,0,20,10,25,0.18,8,Rain,197
2013-7-2,80,76,72,72,71,68,93,85,76,30.19,30.13,30.07,10,8,2,20,11,26,0.01,7,Rain,204
2013-7-3,82,76,70,72,70,68,97,83,69,30.25,30.22,30.18,10,9,5,17,10,24,0.02,5,Rain,212
2013-7-4,86,79,72,73,71,70,100,83,65,30.25,30.21,30.17,10,8,1,21,11,25,0.00,4,,224
2013-7-5,87,80,72,73,71,69,93,78,63,30.20,30.16,30.09,10,10,10,20,11,23,0.00,1,,221
2013-7-6,92,83,74,74,72,70,93,73,52,30.12,30.07,30.01,10,10,10,18,9,23,0.00,2,,224
2013-7-7,88,81,74,73,72,70,94,77,59,30.04,29.99,29.93,10,10,10,15,7,18,0.00,4,,217
2013-7-8,88,80,72,71,68,64,84,67,50,30.02,29.99,29.95,10,10,10,18,9,23,0.00,3,,234
2013-7-9,86,78,70,71,69,65,90,73,55,30.06,30.03,30.00,10,10,9,10,7,13,T,4,Rain,211
2013-7-10,84,79,73,74,71,69,93,79,65,30.00,29.91,29.81,10,9,3,21,9,24,T,6,,200
2013-7-11,84,79,73,73,71,65,94,78,61,29.90,29.84,29.80,10,8,1,13,6,18,0.28,6,Rain,247
2013-7-12,78,73,68,70,66,63,90,79,68,30.10,30.01,29.90,10,7,1,20,11,26,0.79,7,Rain,53
2013-7-13,80,75,69,74,71,66,100,90,79,30.27,30.20,30.11,10,5,0,13,7,17,0.12,8,Fog-Rain,118
2013-7-14,90,82,73,75,72,70,100,79,57,30.31,30.28,30.23,10,7,0,16,7,21,0.08,6,Fog-Rain,235
2013-7-15,94,85,76,72,71,69,87,67,46,30.21,30.17,30.11,10,10,10,15,7,18,0.00,3,,297
2013-7-16,94,84,74,71,67,64,79,59,39,30.16,30.13,30.10,10,10,10,16,8,23,0.00,1,,336
2013-7-17,93,84,75,73,70,67,82,63,44,30.17,30.11,30.06,10,10,10,10,7,16,0.00,1,,269
2013-7-18,95,86,76,75,73,70,82,64,46,30.04,29.99,29.95,10,10,8,15,7,18,0.00,2,,237
2013-7-19,93,86,79,78,75,72,85,75,64,29.95,29.88,29.79,10,8,4,25,11,33,0.00,1,Thunderstorm,224
2013-7-20,90,84,78,75,72,71,91,74,56,29.82,29.76,29.70,10,9,4,24,10,31,0.01,5,Thunderstorm,226
2013-7-21,87,80,73,71,66,59,87,64,40,29.95,29.90,29.83,10,10,10,16,7,21,0.00,5,,83
2013-7-22,85,79,72,73,72,69,94,82,70,29.95,29.89,29.81,10,9,2,15,7,18,0.02,7,Rain,109
2013-7-23,85,79,72,75,73,69,100,85,69,29.80,29.65,29.55,10,8,2,18,10,24,0.49,7,Rain-Thunderstorm,182
2013-7-24,86,78,69,71,67,57,93,74,55,29.90,29.71,29.59,10,10,8,17,8,22,0.00,5,,320
2013-7-25,69,66,62,60,56,51,93,77,61,30.03,29.99,29.90,10,9,5,21,13,26,0.21,8,Rain,21
2013-7-26,79,71,62,66,61,59,93,74,54,30.05,29.99,29.94,10,9,2,20,9,24,0.12,6,Rain,343
2013-7-27,80,73,66,67,65,63,93,78,62,30.06,30.03,29.97,10,10,9,14,7,18,0.00,4,,198
2013-7-28,78,72,66,70,67,62,97,78,58,30.00,29.97,29.94,10,9,6,15,6,20,T,6,Rain,177
2013-7-29,84,77,70,72,68,54,100,76,51,30.07,29.99,29.94,10,10,10,15,6,18,0.01,5,,207
2013-7-30,82,72,62,59,56,52,84,60,36,30.14,30.10,30.07,10,10,10,17,7,22,0.00,2,,306
2013-7-31,80,72,63,63,60,57,84,65,45,30.14,30.10,30.04,10,10,10,15,6,17,0.00,5,,251